{"data":{"norad_id":47945,"epoch":"2026-09-20T05:59:29.379840Z","epoch_age_seconds":106568,"freshness":"FRESH","line1":"1 47945U 21022P   26263.24964560  .00010641  00000+0  24485-3 0  9998","line2":"2 47945  97.3775 169.2672 0010704  90.6731 269.5743 15.42763014304501","mean_motion":15.42763014,"eccentricity":0.0010704,"inclination_deg":97.3775,"raan_deg":169.2672,"arg_perigee_deg":90.6731,"mean_anomaly_deg":269.5743,"bstar":0.00024485,"rev_number":30450,"period_min":93.33902789557,"perigee_km":430.66300460418,"apogee_km":445.25490282189,"semimajor_km":6816.095953713,"source":"CELESTRAK","updated_at":"2026-09-21T09:00:07.621377Z"}}